Cross City, FL

6:37 PM EDT on September 21, 2017 (GMT -0400)
Cross City

Weather History for KCTY - October, 2014

Change the Weather History Date:

Friday, October 24, 2014

  Actual Average Record
Temperature  
Mean Temperature 61 °F 68 °F  
Max Temperature 78 °F 81 °F 89 °F (2010)
Min Temperature 43 °F 55 °F 33 °F (2006)
Degree Days  
Heating Degree Days 4 2  
Month to date heating degree days 12 17  
Since 1 July heating degree days 12 17  
Growing Degree Days 10 (Base 50)    
Moisture  
Dew Point 48 °F    
Average Humidity 69    
Maximum Humidity 93    
Minimum Humidity 35    
Precipitation  
Precipitation 0.00 in 0.09 in 0.42 in (2008)
Month to date precipitation 1.76 2.79  
Year to date precipitation 54.81 42.62  
Sea Level Pressure  
Sea Level Pressure 30.00 in    
Wind  
Wind Speed 2 mph (NNE)    
Max Wind Speed 12 mph    
Max Gust Speed 16 mph    
T = Trace of Precipitation, MM = Missing Value Source: NWS Daily Summary

Daily Weather History Graph

Daily Weather History Graph

Search for Another Location

Airport or City:

Trip Planner

Search our weather history database for the weather conditions in past years. The results will help you decide how hot, cold, wet, or windy it might be!

Date:

Astronomy

Oct. 24, 2014 Rise Set
Actual Time 7:39 AM EDT 6:52 PM EDT
Civil Twilight 7:15 AM EDT 7:17 PM EDT
Nautical Twilight 6:47 AM EDT 7:44 PM EDT
Astronomical Twilight 6:19 AM EDT 8:12 PM EDT
Moon 8:15 AM EDT (10/24) 7:35 PM EDT (10/24)
Length of Visible Light 12h 01m
Length of Day
11h 12m
New Moon, 1% of the Moon is Illuminated
Oct 24
New Moon
Oct 30
First Quarter
Nov 6
Full
Nov 14
Last Quarter
Nov 22
New

Hourly Weather History & Observations

Time (EDT) Temp. Dew Point Humidity Pressure Visibility Wind Dir Wind Speed Gust Speed Precip Events Conditions
12:53 AM 50.0 °F 46.9 °F 89% 30.02 in - Calm Calm - N/A   Unknown
1:53 AM 48.9 °F 46.0 °F 90% 30.02 in - Calm Calm - N/A   Unknown
2:53 AM 48.0 °F 45.0 °F 89% 30.01 in - Calm Calm - N/A   Unknown
3:53 AM 48.0 °F 45.0 °F 89% 30.00 in - Calm Calm - N/A   Unknown
4:53 AM 46.9 °F 44.1 °F 90% 30.00 in - Calm Calm - N/A   Unknown
5:53 AM 45.0 °F 43.0 °F 93% 30.00 in - Calm Calm - N/A   Unknown
6:53 AM 45.0 °F 42.1 °F 90% 30.00 in - Calm Calm - N/A   Unknown
7:53 AM 45.0 °F 43.0 °F 93% 30.02 in - Calm Calm - N/A   Unknown
8:53 AM 55.0 °F 52.0 °F 89% 30.04 in - Calm Calm - N/A   Unknown
9:53 AM 64.0 °F 53.1 °F 67% 30.06 in - NE 3.5 mph - N/A   Unknown
10:53 AM 70.0 °F 52.0 °F 53% 30.06 in - NNE 6.9 mph - N/A   Unknown
11:53 AM 72.0 °F 51.1 °F 48% 30.05 in - Variable 3.5 mph - N/A   Unknown
12:53 PM 73.9 °F 48.9 °F 41% 30.03 in - Variable 4.6 mph - 0.01 in   Unknown
1:53 PM 77.0 °F 48.0 °F 36% 29.99 in - Variable 6.9 mph - N/A   Unknown
2:53 PM 77.0 °F 48.9 °F 37% 29.97 in - North - - N/A   Unknown
3:53 PM 78.1 °F 48.9 °F 36% 29.96 in - Calm Calm - N/A   Unknown
4:53 PM 78.1 °F 48.9 °F 36% 29.94 in - Variable 4.6 mph - N/A   Unknown
5:53 PM 75.9 °F 50.0 °F 40% 29.94 in - NNE 4.6 mph - N/A   Unknown
6:53 PM 66.0 °F 54.0 °F 65% 29.95 in - NNW 5.8 mph - N/A   Unknown
7:53 PM 62.1 °F 52.0 °F 70% 29.97 in - North 5.8 mph - 0.01 in   Unknown
8:53 PM 57.9 °F 51.1 °F 78% 29.99 in - Calm Calm - N/A   Unknown
9:53 PM 54.0 °F 50.0 °F 86% 30.00 in - Calm Calm - N/A   Unknown
10:53 PM 52.0 °F 48.0 °F 86% 30.01 in - Calm Calm - N/A   Unknown
11:53 PM 51.1 °F 46.9 °F 86% 30.01 in - Calm Calm - N/A   Unknown